Regional Weather Roundup
Issued by NWS Sioux Falls, SD

Home | Current Version | Previous Version | Graphics & Text | Print | Product List | Glossary Off
Versions: 1 2 3 4 5 6 7 8 9 10 11 12 13 14 15 16 17 18 19 20 21 22 23 24 25 26 27 28 29 30 31 32 33 34 35 36 37 38 39 40 41 42 43 44 45 46 47 48 49 50

544
ASUS43 KFSD 192102
RWRFSD

WEATHER ROUNDUP FOR SE SOUTH DAKOTA/SW MINNESOTA/NW IOWA
NATIONAL WEATHER SERVICE SIOUX FALLS SD
400 PM CDT THU APR 19 2018

NOTE: "FAIR" INDICATES FEW OR NO CLOUDS BELOW 12,000 FEET WITH NO
SIGNIFICANT WEATHER AND OR OBSTRUCTIONS TO VISIBILITY.


SDZ038>040-050-052>070-192200-
SOUTHEAST SOUTH DAKOTA

CITY           SKY/WX    TMP DP  RH WIND       PRES   REMARKS
BROOKINGS      FAIR      48  20  32 S6        30.44F
CHAMBERLAIN    FAIR      48  30  48 SE13G18   30.41S
HURON          FAIR      45  27  49 S8        30.43F
MADISON        FAIR      41  21  45 S7        30.45S
MITCHELL       FAIR      44  34  67 E5        30.45F
SIOUX FALLS    FAIR      48  27  44 CALM      30.45F
WINNER         FAIR      47  29  49 SE12      30.38F
YANKTON        FAIR      50  28  42 NE8       30.43F
$$

MNZ071-072-080-081-089-090-097-098-192200-
SOUTHWEST MINNESOTA

CITY           SKY/WX    TMP DP  RH WIND       PRES   REMARKS
FAIRMONT       FAIR      39  22  50 E7        30.48F
JACKSON        FAIR      39  21  48 SE7       30.47F
LUVERNE        FAIR      39  27  60 S3        30.48S
MARSHALL       FAIR      43  27  53 W5        30.47F
MONTEVIDEO     FAIR      48  19  32 SW7       30.46F
PIPESTONE      FAIR     N/A N/A N/A S5        30.45F
REDWOOD FALLS  FAIR      40  25  55 S8        30.47F
TRACY          FAIR      42  27  54 SW6       30.46F
WINDOM         FAIR      41  18  38 E3        30.46F
WORTHINGTON    FAIR      38  23  55 S3        30.47F
$$

IAZ001>003-012>014-020>022-031-032-NEZ013-014-SDZ071-192200-
NORTHWEST IOWA

CITY           SKY/WX    TMP DP  RH WIND       PRES   REMARKS
CHEROKEE       FAIR      39  26  60 E6        30.48F
DENISON        FAIR      52  32  46 E10       30.45F
ESTHERVILLE    FAIR      36  26  67 SE5       30.46F
LE MARS        FAIR      43  30  61 E10       30.47S
ORANGE CITY    FAIR      39  28  65 CALM      30.47F
SHELDON        FAIR      39  30  70 SE6       30.46F
SIOUX CITY     FAIR      53  30  41 E8        30.43F
SPENCER        FAIR      39  25  57 S5        30.47F
STORM LAKE     FAIR      36  23  60 E10       30.46F
$$

ABBREVIATIONS USED IN REMARKS
   TC - TEMPERATURE IN CELSIUS
  WCI - WIND CHILL INDEX
   HX - HEAT INDEX
  VSB - VISIBILITY





USA.gov is the U.S. government's official web portal to all federal, state and local government web resources and services.